User: anonymous   Login
Location: Unspecified
(0.0000°N, 0.0000°E)
Time: 02:13:39
(UTC+00:00)
Language:

APRIZESAT 2 (LATINSAT D) - Orbit

View from above orbital plane
View from above orbital plane
View from above satellite
View from above satellite

Ground track
Ground track

The orbit data is extracted from the following two-line orbital elements,

1 28366U 04025A   24111.53574574  .00000845  00000-0  27815-3 0  9998
2 28366  98.0878 313.1723 0108109 107.6534 253.6493 14.37255648 38460
Epoch (UTC): 20 April 2024 12:51:28
Eccentricity: 0.0108109
inclination: 98.0878°
perigee height: 690 km
apogee height: 845 km
right ascension of ascending node: 313.1723°
argument of perigee: 107.6534°
revolutions per day: 14.37255648
mean anomaly at epoch: 253.6493°
orbit number at epoch: 3846

The dashed part of the orbit path shows where the satellite is in the earth's shadow,  

DLR